GW4654 Weather Reports


Display with metric or nautical units.
time (UTC)temp
F
wind
direction
speed
MPH
gust
MPH
rain 1hr
in
rain 24hr
in
rain mn
in
humidity
%
barometer
mb
20260504022446 43 235 0.0 0.0 0.00 0.00 0.00 79 1013.6
20260504021943 43 235 0.0 0.0 0.00 0.00 0.00 78 1013.7
20260504021440 42 235 0.0 0.0 0.00 0.00 0.00 80 1013.7
20260504020938 43 235 0.0 0.0 0.00 0.00 0.00 81 1013.5
20260504020434 42 235 0.0 0.0 0.00 0.00 0.00 83 1013.6
20260504015931 43 235 0.0 0.0 0.00 0.00 0.00 79 1013.6
20260504015427 43 235 0.0 0.0 0.00 0.00 0.00 78 1013.7
20260504014923 43 235 0.0 0.0 0.00 0.00 0.00 78 1013.5
20260504014419 44 235 0.0 0.0 0.00 0.00 0.00 78 1013.6
20260504013916 44 235 0.0 0.0 0.00 0.00 0.00 77 1013.7
20260504013415 44 235 0.0 0.0 0.00 0.00 0.00 76 1013.6
20260504012910 45 235 0.0 0.0 0.00 0.00 0.00 76 1013.6
20260504012409 45 235 0.0 0.0 0.00 0.00 0.00 75 1013.4
20260504011905 45 235 0.0 0.0 0.00 0.00 0.00 74 1013.4
20260504011403 46 235 0.0 0.0 0.00 0.00 0.00 72 1013.4
20260504010858 46 235 0.0 0.0 0.00 0.00 0.00 69 1013.4
20260504010354 47 235 0.0 0.0 0.00 0.00 0.00 68 1013.4
20260504005851 47 235 0.0 0.0 0.00 0.00 0.00 65 1013.4
20260504005347 48 235 0.0 0.0 0.00 0.00 0.00 65 1013.5
20260504004845 49 235 0.0 0.0 0.00 0.00 0.00 59 1013.4
20260504004343 49 235 0.0 0.0 0.00 0.00 0.00 57 1013.3
20260504003839 49 235 0.0 0.0 0.00 0.00 0.00 58 1013.3
20260504003336 50 235 0.0 0.0 0.00 0.00 0.00 55 1013.2
20260504002832 51 235 0.0 0.0 0.00 0.00 0.00 54 1013.5
20260504002329 51 235 0.0 0.0 0.00 0.00 0.00 55 1013.2
20260504001827 51 235 0.0 0.0 0.00 0.00 0.00 52 1013.4
20260504001324 51 235 0.0 0.0 0.00 0.00 0.00 55 1013.2
20260504000821 52 235 0.0 0.0 0.00 0.00 0.00 54 1013.1
20260504000318 52 235 0.0 0.0 0.00 0.00 0.00 52 1013.2
20260503235816 53 235 0.0 0.0 0.00 0.00 0.00 53 1013.1
20260503235313 53 233 0.0 2.0 0.00 0.00 0.00 48 1013.2
20260503234810 53 238 0.0 0.0 0.00 0.00 0.00 51 1013.1
20260503234308 54 244 0.0 0.0 0.00 0.00 0.00 49 1013.3
20260503233806 54 244 0.0 0.0 0.00 0.00 0.00 49 1013.2
20260503233301 54 244 0.0 0.0 0.00 0.00 0.00 48 1013.2
20260503232758 54 244 0.0 0.0 0.00 0.00 0.00 49 1013.2
20260503232256 55 244 1.0 2.0 0.00 0.00 0.00 45 1013.2
20260503231754 55 241 0.0 0.0 0.00 0.00 0.00 48 1013.4
20260503231250 55 232 0.0 0.0 0.00 0.00 0.00 45 1013.1
20260503230746 56 237 0.0 0.0 0.00 0.00 0.00 46 1013.1
20260503230243 56 242 0.0 0.0 0.00 0.00 0.00 47 1013.2
20260503225736 56 233 0.0 0.0 0.00 0.00 0.00 43 1013.2
20260503225236 56 232 0.0 0.0 0.00 0.00 0.00 44 1013.3
20260503224733 56 232 0.0 1.0 0.00 0.00 0.00 44 1013.2
20260503224230 57 222 0.0 0.0 0.00 0.00 0.00 41 1013.0
20260503223728 57 246 0.0 1.0 0.00 0.00 0.00 42 1013.2
20260503223225 57 220 3.0 4.0 0.00 0.00 0.00 44 1013.3
20260503222721 57 250 0.0 0.0 0.00 0.00 0.00 42 1013.2
20260503222219 57 226 0.0 1.0 0.00 0.00 0.00 41 1013.3
20260503221718 58 219 2.0 3.0 0.00 0.00 0.00 43 1013.4
20260503221215 58 233 2.0 3.0 0.00 0.00 0.00 41 1013.6
20260503220711 60 249 1.0 3.0 0.00 0.00 0.00 38 1013.5
20260503220207 60 220 2.0 7.0 0.00 0.00 0.00 38 1013.2
20260503215704 60 220 2.0 7.0 0.00 0.00 0.00 38 1013.0
20260503215201 59 221 2.0 3.0 0.00 0.00 0.00 38 1013.2
20260503214700 58 230 0.0 3.0 0.00 0.00 0.00 40 1013.2
20260503214155 58 223 0.0 3.0 0.00 0.00 0.00 41 1013.3
20260503213649 58 217 1.0 2.0 0.00 0.00 0.00 38 1013.2
20260503213145 57 235 0.0 3.0 0.00 0.00 0.00 38 1013.3
20260503212643 58 218 4.0 6.0 0.00 0.00 0.00 40 1013.3
20260503212140 58 261 4.0 4.0 0.00 0.00 0.00 39 1013.2
20260503211638 60 216 1.0 3.0 0.00 0.00 0.00 39 1013.3
20260503211133 59 185 5.0 7.0 0.00 0.00 0.00 37 1013.2
20260503210629 58 226 1.0 3.0 0.00 0.00 0.00 42 1013.0
20260503210127 59 223 0.0 2.0 0.00 0.00 0.00 39 1013.2
20260503205622 59 221 1.0 3.0 0.00 0.00 0.00 39 1013.3
20260503205118 59 219 2.0 3.0 0.00 0.00 0.00 39 1013.3
20260503204615 58 220 2.0 3.0 0.00 0.00 0.00 39 1013.6
20260503204113 57 283 2.0 4.0 0.00 0.00 0.00 40 1013.4
20260503203610 57 238 0.0 0.0 0.00 0.00 0.00 38 1013.5
20260503203108 58 223 1.0 7.0 0.00 0.00 0.00 41 1013.4
20260503202605 58 217 2.0 6.0 0.00 0.00 0.00 39 1013.8
20260503202103 58 224 1.0 7.0 0.00 0.00 0.00 41 1013.6
20260503201601 60 223 2.0 7.0 0.00 0.00 0.00 40 1013.8
20260503201058 57 221 0.0 2.0 0.00 0.00 0.00 42 1013.7
20260503200554 57 227 2.0 4.0 0.00 0.00 0.00 41 1014.0
20260503200050 57 238 2.0 4.0 0.00 0.00 0.00 39 1013.9
20260503195547 59 219 3.0 6.0 0.00 0.00 0.00 40 1013.8
20260503195044 57 220 1.0 2.0 0.00 0.00 0.00 41 1014.3
20260503194541 58 249 1.0 2.0 0.00 0.00 0.00 41 1014.0
20260503194040 58 235 0.0 6.0 0.00 0.00 0.00 40 1014.2
20260503193538 58 237 0.0 2.0 0.00 0.00 0.00 42 1014.3
20260503193033 59 206 4.0 7.0 0.00 0.00 0.00 40 1014.3
20260503192530 59 202 4.0 4.0 0.00 0.00 0.00 38 1014.6
20260503192026 60 221 3.0 7.0 0.00 0.00 0.00 40 1014.6
20260503191523 58 211 3.0 6.0 0.00 0.00 0.00 41 1014.4
20260503191020 58 146 6.0 8.0 0.00 0.00 0.00 43 1014.6
20260503190516 59 239 0.0 4.0 0.00 0.00 0.00 40 1014.5
20260503190014 58 241 3.0 9.0 0.00 0.00 0.00 42 1014.7
20260503185510 58 227 2.0 7.0 0.00 0.00 0.00 41 1014.7
20260503185009 57 230 1.0 6.0 0.00 0.00 0.00 42 1014.9
20260503184506 57 252 2.0 6.0 0.00 0.00 0.00 39 1014.7
20260503184002 57 191 3.0 6.0 0.00 0.00 0.00 43 1015.0
20260503183459 58 211 3.0 7.0 0.00 0.00 0.00 40 1015.1
20260503182956 57 233 2.0 6.0 0.00 0.00 0.00 41 1015.0
20260503182455 58 233 1.0 6.0 0.00 0.00 0.00 44 1015.2
20260503181952 56 163 9.0 14.0 0.00 0.00 0.00 43 1015.1
20260503181449 57 172 7.0 9.0 0.00 0.00 0.00 41 1015.3
20260503180945 56 217 1.0 3.0 0.00 0.00 0.00 43 1015.2
20260503180443 55 217 1.0 4.0 0.00 0.00 0.00 43 1015.4
20260503175940 56 219 0.0 4.0 0.00 0.00 0.00 43 1015.7
20260503175438 57 248 5.0 10.0 0.00 0.00 0.00 38 1015.6
20260503174933 56 203 3.0 4.0 0.00 0.00 0.00 43 1015.7
20260503174432 56 191 4.0 8.0 0.00 0.00 0.00 44 1015.4
20260503173932 54 211 2.0 4.0 0.00 0.00 0.00 44 1015.7
20260503173428 56 182 6.0 8.0 0.00 0.00 0.00 40 1015.5
20260503172925 56 206 2.0 4.0 0.00 0.00 0.00 42 1015.7
20260503172422 56 180 3.0 9.0 0.00 0.00 0.00 40 1015.7
20260503171918 56 220 2.0 4.0 0.00 0.00 0.00 40 1015.8
20260503171415 55 214 2.0 3.0 0.00 0.00 0.00 47 1015.9
20260503170913 55 266 4.0 4.0 0.00 0.00 0.00 40 1015.5
20260503170409 56 227 1.0 8.0 0.00 0.00 0.00 43 1016.2
20260503150801 51 180 5.0 6.0 0.00 0.00 0.00 44 1016.7
20260503150257 52 220 2.0 4.0 0.00 0.00 0.00 50 1016.6
20260503140222 49 226 1.0 3.0 0.00 0.00 0.00 57 1017.3
20260503131151 45 191 2.0 3.0 0.00 0.00 0.00 68 1017.3
20260503130648 44 231 0.0 3.0 0.00 0.00 0.00 68 1017.1
20260503130146 44 197 4.0 4.0 0.00 0.00 0.00 70 1017.2
20260503120106 40 230 0.0 0.0 0.00 0.00 0.00 82 1017.0
20260503110533 33 231 0.0 0.0 0.00 0.00 0.00 99 1016.5
20260503090420 29 231 0.0 0.0 0.00 0.00 0.00 99 1015.9
20260503081346 29 231 0.0 0.0 0.00 0.00 0.00 99 1015.9
20260503080843 29 231 0.0 0.0 0.00 0.00 0.00 99 1016.1
20260503080340 30 231 0.0 0.0 0.00 0.00 0.00 99 1016.0
20260503072817 31 231 0.0 0.0 0.00 0.00 0.00 99 1015.5
20260503072314 31 231 0.0 0.0 0.00 0.00 0.00 99 1015.6
20260503071809 31 231 0.0 0.0 0.00 0.00 0.00 99 1015.6
20260503071307 31 231 0.0 0.0 0.00 0.00 0.00 99 1015.6
20260503070803 31 231 0.0 0.0 0.00 0.00 0.00 99 1015.6
20260503070301 31 231 0.0 0.0 0.00 0.00 0.00 99 1015.4
20260503060221 34 231 0.0 0.0 0.00 0.00 0.00 99 1015.7
20260503054707 33 231 0.0 0.0 0.00 0.00 0.00 99 1015.8
20260503054205 34 231 0.0 0.0 0.00 0.00 0.00 99 1015.8
20260503053703 34 231 0.0 0.0 0.00 0.00 0.00 99 1015.7
20260503053202 34 231 0.0 0.0 0.00 0.00 0.00 99 1015.8
20260503052657 34 231 0.0 0.0 0.00 0.00 0.00 99 1015.8
20260503052154 34 231 0.0 0.0 0.00 0.00 0.00 99 1016.0
20260503051649 34 231 0.0 0.0 0.00 0.00 0.00 99 1015.9
20260503051147 34 231 0.0 0.0 0.00 0.00 0.00 99 1015.9
20260503050644 34 231 0.0 0.0 0.00 0.00 0.00 99 1015.9
20260503050140 34 231 0.0 0.0 0.00 0.00 0.00 99 1015.9
20260503045638 34 231 0.0 0.0 0.00 0.00 0.00 98 1016.1
20260503045135 34 231 0.0 0.0 0.00 0.00 0.00 98 1016.1
20260503044631 34 231 0.0 0.0 0.00 0.00 0.00 98 1016.1
20260503044129 34 231 0.0 0.0 0.00 0.00 0.00 97 1016.0
20260503043626 34 231 0.0 0.0 0.00 0.00 0.00 97 1016.1
20260503043122 34 231 0.0 0.0 0.00 0.00 0.00 97 1016.2
20260503042619 34 231 0.0 0.0 0.00 0.00 0.00 96 1016.1
20260503042115 34 231 0.0 0.0 0.00 0.00 0.00 96 1016.1
20260503041611 34 231 0.0 0.0 0.00 0.00 0.00 96 1016.1
20260503041110 35 231 0.0 0.0 0.00 0.00 0.00 96 1016.1
20260503040606 35 231 0.0 0.0 0.00 0.00 0.00 95 1016.0
20260503040104 35 231 0.0 0.0 0.00 0.00 0.00 95 1016.3
20260503035600 35 231 0.0 0.0 0.00 0.01 0.01 95 1016.0
20260503035058 35 231 0.0 0.0 0.00 0.01 0.01 94 1015.9
20260503034555 35 231 0.0 0.0 0.00 0.01 0.01 94 1016.4
20260503034052 35 231 0.0 0.0 0.00 0.01 0.01 94 1015.9
20260503033549 36 231 0.0 0.0 0.00 0.01 0.01 93 1016.0
20260503033047 36 231 0.0 0.0 0.00 0.01 0.01 92 1016.1
20260503032545 36 231 0.0 0.0 0.00 0.01 0.01 92 1015.9
20260503032043 36 231 0.0 0.0 0.00 0.01 0.01 92 1016.1
20260503031541 36 231 0.0 0.0 0.00 0.01 0.01 92 1016.2
20260503031038 36 231 0.0 0.0 0.00 0.01 0.01 92 1016.1
20260503030533 36 231 0.0 0.0 0.00 0.01 0.01 91 1016.1
20260503030031 36 231 0.0 0.0 0.00 0.01 0.01 90 1016.3
20260503025527 36 231 0.0 0.0 0.00 0.01 0.01 90 1016.3
20260503025025 36 231 0.0 0.0 0.00 0.01 0.01 89 1016.2
20260503024520 36 231 0.0 0.0 0.00 0.01 0.01 90 1016.2
20260503024018 36 231 0.0 0.0 0.00 0.01 0.01 89 1016.4
20260503023515 36 231 0.0 0.0 0.00 0.01 0.01 87 1016.3
20260503023012 37 231 0.0 0.0 0.00 0.01 0.01 85 1016.5